SCP
0 0 0 0 0 0 0 0 0 0 0 0 0 0 0 0 0 0 0 0 0 0 0 0 1 1 0 0 0 0 0 0 0 0 0 0 0 0 0 0 0 0 0 0 0 0 0 0 0
0 0 0 0 0 0 0 0 0 0 0 0 0 0 0 0 0 0 0 0 0 0 0 0 1 1 0 0 0 0 0 0 0 0 0 0 0 0 0 0 0 0 0 0 0 0 0 0 0
0 0 0 0 0 0 0 0 0 0 0 0 0 0 0 0 0 0 0 0 1 1 0 0 1 1 1 0 0 0 0 0 0 0 0 0 0 0 0 0 0 0 0 0 0 0 0 0 0
0 0 0 0 0 0 0 0 0 0 0 0 0 0 0 0 0 0 0 0 1 1 1 1 1 1 1 1 1 0 0 0 0 0 0 0 0 0 0 0 0 0 0 0 0 0 0 0 0
0 0 0 0 0 0 0 0 0 0 0 0 0 0 0 0 0 0 0 0 1 1 1 1 1 1 1 1 1 0 0 0 0 0 0 0 0 0 0 0 0 0 0 0 0 0 0 0 0
0 0 0 0 0 0 0 0 0 0 0 0 0 0 0 0 0 0 0 1 1 1 1 1 0 0 0 0 0 0 0 0 0 0 0 0 0 0 0 0 0 0 0 0 0 0 0 0 0
0 0 0 0 0 0 0 0 0 0 0 0 0 0 0 1 1 0 0 1 1 1 1 1 0 0 0 0 0 0 0 0 0 0 0 0 0 0 0 0 0 0 0 0 0 0 0 0 0
1 0 0 0 0 0 0 0 0 0 0 0 0 0 1 1 1 1 1 1 1 1 1 1 0 0 0 0 0 0 0 0 0 0 0 0 0 0 0 0 0 0 0 0 0 0 0 0 0
1 0 0 0 0 0 0 0 0 0 0 0 0 1 1 1 1 1 1 1 2 2 1 1 0 0 0 0 0 0 0 0 0 0 0 0 0 0 0 0 0 0 0 0 0 0 0 0 0
0 0 0 0 0 0 0 0 0 0 0 0 1 1 1 1 1 1 1 1 2 2 1 1 1 0 0 0 0 0 0 0 0 0 0 0 0 0 0 0 0 0 0 0 0 0 0 0 0
0 0 0 0 0 0 0 0 0 0 0 0 0 1 1 1 1 1 1 1 2 2 1 1 1 1 1 1 1 0 0 0 0 0 0 0 0 0 0 0 0 0 0 0 0 0 0 0 0
0 0 0 0 0 0 0 0 0 0 0 0 0 1 1 1 1 1 1 1 1 1 1 1 1 1 1 1 1 1 1 0 0 0 0 0 0 0 0 0 0 0 0 0 0 0 0 0 0
0 0 0 0 0 0 0 0 0 0 0 0 0 1 1 1 1 1 1 1 1 1 1 1 1 1 1 1 1 1 1 1 0 0 0 0 0 0 0 0 0 0 0 0 0 0 0 0 0
0 0 0 0 0 0 0 0 0 0 0 0 0 0 1 1 0 0 0 0 1 1 1 1 1 1 1 1 1 1 1 1 1 0 0 0 0 0 0 0 0 0 0 0 0 0 0 0 0
0 0 0 0 0 0 0 0 0 0 0 0 0 0 0 1 0 0 0 0 1 1 1 1 1 1 1 1 1 1 1 1 1 0 0 0 0 0 0 0 0 0 0 0 0 0 0 0 0
0 0 0 0 0 0 0 0 0 0 0 0 0 0 0 0 0 0 0 0 1 1 1 1 1 1 1 1 1 1 1 1 1 0 0 0 0 0 0 0 0 0 0 0 0 0 0 0 0
0 0 0 0 0 0 0 0 0 0 0 0 0 0 0 0 0 1 1 1 1 1 1 1 1 1 1 1 1 1 1 1 1 0 0 0 0 0 0 0 0 0 0 0 0 0 0 0 0
0 0 0 0 0 0 0 0 0 0 0 0 0 0 0 0 0 1 1 1 1 1 1 1 1 1 1 1 1 1 1 1 1 0 0 0 0 0 0 0 0 0 0 0 0 0 0 0 0
0 0 0 0 0 0 0 0 0 0 0 0 0 0 0 0 0 0 1 1 1 1 1 1 1 2 2 1 1 1 1 1 0 0 0 0 0 0 0 0 0 0 0 0 0 0 0 0 0
0 0 0 0 0 0 0 0 0 0 0 0 0 0 0 0 0 0 1 1 1 1 1 1 1 2 2 2 1 1 1 0 0 0 0 0 0 0 0 0 0 0 0 0 0 0 0 0 0
0 0 0 0 0 0 0 0 0 0 0 0 0 0 0 0 0 0 0 1 1 1 1 1 1 1 2 2 2 1 1 0 0 0 0 0 0 0 0 0 0 0 0 0 0 0 0 0 0
0 0 0 0 0 0 0 0 0 0 0 0 0 0 0 0 0 0 0 0 1 1 1 1 1 1 2 2 2 1 1 0 0 0 0 0 0 0 0 0 0 0 0 0 0 0 0 0 0
0 0 0 0 0 0 0 0 0 0 0 0 0 0 0 0 0 0 0 0 1 1 1 1 1 1 1 2 2 1 1 1 0 0 0 0 0 0 0 0 0 0 0 0 0 0 0 0 0
0 0 0 0 0 0 0 0 0 0 0 0 0 0 0 0 0 0 0 0 1 1 1 1 1 1 1 2 2 1 1 1 0 0 0 0 0 0 0 0 0 0 0 0 0 0 0 0 0
0 0 0 0 0 0 0 0 0 0 0 0 0 0 0 0 0 0 0 0 0 1 1 1 1 1 1 1 1 1 1 1 1 0 0 0 0 0 0 0 0 0 0 0 0 0 0 0 0
0 0 0 0 0 0 0 0 0 0 0 0 0 0 0 0 0 0 0 0 0 1 1 1 1 1 1 1 1 1 1 1 1 1 1 1 0 0 0 0 0 0 0 0 0 0 0 0 0
0 0 0 0 0 0 0 0 0 0 0 0 0 0 0 0 0 0 0 0 0 1 1 1 1 1 1 1 1 1 1 1 1 1 1 1 1 0 0 0 0 0 0 0 0 0 0 0 0
0 0 0 0 0 0 0 0 0 0 0 0 0 0 0 0 0 0 0 0 0 0 1 1 1 1 1 1 1 1 1 1 1 1 1 1 1 0 0 0 0 0 0 0 0 0 0 0 0
0 0 0 0 0 0 0 0 0 0 0 0 0 0 0 0 0 0 0 0 0 0 0 0 0 1 1 1 1 1 1 1 1 1 1 0 1 0 0 0 0 0 0 0 0 0 0 0 0
0 0 0 0 0 0 0 0 0 0 0 0 0 0 0 0 0 0 0 0 0 0 0 0 0 0 0 0 0 1 1 1 1 0 0 0 1 1 0 0 0 0 0 0 0 0 0 0 0
Wind_Speed
15 12 7 3 4 4 4 2 2 4 3 5 4 3 4 7 5 8 5 10 14 16 15 13 13 14 14 13 12 12 12 12 12 12 12 12 12 12 12 12 12 12 13 13 13 13 13 13 13
12 11 6 4 5 5 3 3 4 4 6 5 3 1 2 7 8 8 6 11 14 15 14 13 13 13 14 13 12 11 11 11 11 11 12 11 11 12 11 11 11 11 12 12 12 12 12 12 11
12 9 4 4 5 6 3 3 5 8 7 4 3 1 3 6 9 7 8 12 13 13 13 14 14 14 14 13 12 12 11 11 11 11 11 11 11 11 10 10 10 10 11 11 11 11 11 11 10
6 4 4 5 8 5 2 1 6 7 5 2 3 4 5 5 5 8 11 11 12 12 13 14 13 13 13 13 12 12 11 11 10 10 11 11 10 10 10 9 9 9 10 10 10 10 9 9 8
4 4 5 7 8 5 1 1 4 5 6 5 3 4 7 5 9 12 10 10 11 11 12 14 12 12 12 12 12 11 11 11 10 10 10 10 10 9 9 9 8 8 8 9 9 8 8 7 6
4 4 6 8 8 5 3 2 3 4 5 5 4 3 7 7 9 10 9 9 10 11 12 12 11 11 11 11 11 10 10 10 9 9 10 10 9 8 8 8 7 7 7 8 7 7 7 6 5
4 5 8 9 7 5 4 3 4 3 4 5 4 3 8 8 9 9 8 9 10 11 11 11 10 10 10 10 10 10 9 9 9 8 8 8 8 7 7 7 7 6 6 6 6 6 5 5 4
3 4 8 10 9 6 3 3 2 2 2 1 1 2 7 10 10 9 8 7 9 9 10 10 10 9 8 8 9 9 9 9 9 9 8 8 8 7 6 6 6 5 5 5 5 4 4 4 2
4 5 9 9 7 4 3 4 2 1 1 1 2 5 8 15 11 9 7 6 7 8 9 9 10 9 9 8 10 9 9 8 9 7 9 7 5 5 5 6 7 6 5 4 4 4 4 3 3
5 7 11 7 5 4 4 5 4 4 4 4 4 7 11 12 11 10 10 10 9 9 9 8 9 9 9 8 8 6 6 6 6 5 6 5 4 4 5 8 8 7 5 5 5 5 4 4 3
5 8 7 7 6 5 5 5 4 4 6 6 8 11 12 11 10 11 10 10 10 9 8 8 8 8 8 5 7 4 4 5 6 7 7 5 4 3 4 3 4 4 5 4 5 5 4 4 3
8 9 8 6 5 5 7 6 6 7 5 1 2 11 13 13 12 12 12 11 10 10 10 9 8 8 7 6 6 5 4 5 5 6 7 5 3 3 3 3 4 4 3 4 4 3 5 4 3
11 10 10 7 6 7 7 8 8 9 6 2 1 6 11 12 12 11 10 9 10 11 11 10 9 8 7 6 5 5 5 5 5 5 6 6 4 4 4 3 3 4 4 4 4 4 4 4 4
7 7 9 9 9 7 9 11 10 10 7 6 5 6 9 11 11 11 11 11 11 11 11 11 10 9 8 7 5 5 5 5 5 5 6 7 5 4 4 4 4 4 3 4 4 4 3 3 3
7 9 11 10 10 7 7 13 15 12 8 9 8 7 9 9 10 10 11 11 11 11 11 11 12 10 10 9 8 5 5 5 5 5 6 7 6 5 5 4 4 4 4 4 3 4 2 2 3
6 8 11 10 10 8 8 16 11 10 12 12 10 9 9 9 10 9 9 9 9 9 10 11 10 11 11 9 8 6 6 6 5 5 6 7 8 7 5 5 5 5 4 4 3 3 3 3 3
8 10 13 10 10 9 12 13 7 6 9 11 11 10 9 9 9 9 9 9 10 10 10 11 11 12 11 10 8 7 6 6 5 5 6 7 8 8 6 5 5 5 4 4 4 4 4 4 4
8 11 11 11 7 10 14 14 9 7 9 11 10 10 9 9 9 9 9 9 9 9 10 10 11 11 10 9 7 6 7 7 6 6 7 8 7 8 7 5 6 6 5 5 4 5 4 3 3
10 12 13 10 5 8 13 15 13 11 11 11 11 10 9 8 8 8 8 8 8 9 9 10 11 11 9 8 8 8 9 7 6 6 8 9 9 9 8 6 6 6 6 6 6 5 5 4 3
14 14 15 10 6 6 11 16 14 13 14 12 11 10 10 9 8 7 8 8 9 9 10 10 11 11 11 9 9 8 7 7 7 6 8 10 10 10 9 9 7 7 6 7 7 6 4 4 4
15 15 14 11 7 7 10 14 15 14 15 13 11 10 10 10 9 8 7 8 8 9 9 9 10 11 11 10 7 6 5 5 6 8 8 9 10 10 10 10 8 8 7 7 8 7 8 5 5
15 12 12 11 9 7 7 11 11 11 13 15 14 12 12 11 10 8 7 7 8 8 8 8 9 9 10 10 9 10 9 10 10 7 7 7 9 10 10 9 10 9 8 8 8 8 7 7 6
10 6 9 10 10 11 10 11 9 8 12 12 12 12 12 11 10 9 8 7 6 7 7 7 8 8 8 9 10 10 10 8 6 5 7 8 8 9 9 9 9 9 8 9 8 8 8 8 7
5 4 6 7 6 13 15 13 10 9 12 11 11 11 10 8 8 7 6 5 5 5 5 6 7 7 8 8 10 10 11 9 8 8 8 7 6 7 10 10 9 9 8 9 9 8 9 8 8
7 5 4 7 9 11 10 13 11 6 8 9 9 9 8 7 7 6 4 5 5 5 5 5 6 7 7 7 9 10 10 10 10 9 8 7 6 6 9 9 9 8 9 9 8 8 8 9 8
11 11 8 6 6 6 8 13 9 6 5 4 3 4 4 5 5 4 4 4 4 4 5 5 6 6 6 7 8 8 9 8 7 8 7 7 6 7 7 8 9 9 9 8 8 7 8 7 8
9 11 9 6 4 6 7 8 7 3 4 3 3 3 2 2 3 3 3 2 2 2 3 4 5 5 5 6 7 7 7 8 7 7 7 5 5 5 7 8 8 9 9 9 8 7 7 6 7
8 6 4 7 6 8 8 10 8 5 5 4 5 4 3 2 1 1 1 2 2 2 1 2 2 3 3 4 5 5 6 7 7 6 6 6 6 6 7 7 8 8 8 8 8 6 6 7 6
8 9 7 5 6 5 6 6 4 4 4 5 4 3 2 1 1 0 0 0 1 2 2 1 2 2 2 2 3 4 4 4 5 6 6 6 5 6 6 7 7 7 7 7 7 7 6 7 7
10 11 10 7 7 6 7 6 2 2 1 1 1 1 2 1 1 1 1 1 2 1 1 2 2 2 2 2 2 3 3 3 4 5 5 5 5 5 5 5 6 6 7 7 7 7 7 7 7
Wind_Direction
312 296 284 267 245 238 242 207 102 96 90 68 53 8 28 39 46 104 140 130 124 128 136 143 141 140 138 135 132 130 127 125 123 119 114 110 109 106 101 99 97 96 95 92 90 88 86 82 80
305 297 285 248 250 252 237 161 137 112 94 95 96 323 76 80 85 110 130 124 127 131 141 145 141 141 140 139 137 135 131 127 125 123 119 115 113 112 106 103 102 101 98 95 93 91 88 84 81
293 277 266 254 249 255 258 112 110 96 107 140 145 52 36 83 110 124 129 131 130 134 139 137 143 144 143 142 142 139 136 132 130 128 125 121 117 115 111 107 106 105 102 100 96 93 89 86 82
296 267 238 249 258 265 265 119 113 121 133 179 161 124 87 58 93 118 131 136 133 135 133 140 146 147 147 146 145 144 142 138 135 132 131 128 124 120 116 110 107 108 106 104 102 97 93 88 83
266 251 245 246 252 259 286 71 127 152 160 176 201 129 104 91 99 120 139 138 135 135 132 144 147 148 149 150 149 148 146 143 139 137 137 134 132 128 124 119 115 114 111 109 107 102 96 90 85
274 255 243 241 241 231 220 207 188 189 171 163 182 156 109 126 125 138 144 141 139 135 134 144 146 149 150 152 152 151 150 148 144 143 141 139 139 138 134 128 124 120 119 119 115 111 105 98 90
270 268 254 254 245 231 209 202 206 205 193 176 170 151 124 144 137 143 146 147 141 137 138 146 153 153 151 153 152 152 151 150 148 145 142 141 140 138 134 132 134 134 133 130 126 123 118 113 102
276 275 255 248 245 238 208 212 217 237 210 123 147 165 139 145 138 144 146 149 142 141 147 154 160 161 160 158 157 155 154 155 151 148 143 142 144 144 143 141 141 145 148 145 142 141 139 137 140
271 245 244 242 244 236 218 227 207 337 309 108 88 56 106 130 138 145 150 153 149 153 157 161 165 165 165 167 164 159 158 159 154 152 154 154 165 166 167 168 156 156 153 160 166 167 170 176 199
228 240 242 256 273 262 238 241 209 189 207 192 138 102 117 135 150 162 169 171 168 169 169 166 168 168 169 170 159 167 169 166 172 167 168 182 191 180 169 160 164 166 169 178 191 196 199 209 216
238 247 260 267 291 289 269 262 257 227 220 207 176 151 147 157 166 177 183 182 178 175 174 172 172 170 170 162 161 172 172 171 184 178 177 188 189 171 158 154 160 173 186 197 202 202 217 221 219
252 261 269 271 286 282 272 271 262 247 243 348 137 154 157 171 181 187 189 188 180 181 181 179 174 172 172 167 170 173 172 173 179 181 179 183 182 180 175 172 174 181 191 199 200 204 218 224 226
252 256 264 270 273 272 274 263 262 259 252 253 90 151 168 182 189 193 193 190 186 187 184 182 181 179 175 175 178 178 177 176 178 178 182 182 181 185 186 185 183 187 190 193 204 214 219 219 225
272 275 266 258 259 261 259 258 251 250 250 241 214 191 187 193 193 191 191 193 193 191 187 183 187 186 181 183 185 183 180 178 181 180 184 187 187 189 188 189 188 195 193 193 197 213 216 216 221
279 277 271 256 242 244 255 253 239 241 243 243 230 213 202 202 198 199 196 195 194 191 187 185 187 188 188 190 190 190 187 186 188 185 187 190 193 191 188 190 191 198 198 197 196 218 216 218 226
261 249 247 237 228 223 227 249 239 223 227 235 235 224 211 206 203 203 200 196 193 189 189 189 186 188 191 193 191 193 193 192 194 188 190 196 198 194 191 195 196 195 193 192 194 205 210 222 229
228 236 239 237 221 214 220 250 251 233 225 233 233 228 221 208 205 203 199 195 192 191 191 190 188 189 192 193 193 193 194 199 199 195 194 198 199 198 196 199 197 193 193 196 199 201 200 216 228
218 233 244 238 217 219 232 246 250 252 246 240 238 233 228 217 209 204 198 194 189 188 190 192 191 192 190 190 192 194 199 205 204 201 200 197 200 199 198 200 200 194 194 199 201 205 207 213 221
264 265 259 255 245 240 244 251 250 246 248 249 242 237 234 230 219 205 196 190 184 183 187 193 194 194 188 189 192 196 203 204 206 206 201 199 200 200 201 203 203 200 201 202 202 202 211 218 206
251 259 264 272 258 256 263 259 253 249 245 244 246 239 236 240 234 214 196 189 187 187 189 194 198 195 193 196 196 199 198 201 208 209 205 203 203 201 203 205 204 203 205 207 205 201 204 209 188
243 245 251 259 274 268 278 268 246 241 240 242 242 242 237 236 237 226 205 194 190 192 192 196 199 198 198 195 191 190 193 200 205 210 211 207 204 204 204 204 204 205 206 211 209 204 205 212 205
245 244 252 260 261 255 234 270 249 233 231 230 230 230 233 232 232 230 221 206 195 196 196 198 197 198 198 193 192 191 198 204 208 206 204 201 202 205 207 205 206 207 208 211 211 208 207 208 213
250 262 259 257 254 258 244 260 260 226 234 230 222 223 226 227 225 224 219 213 205 195 194 198 198 200 198 194 194 198 206 211 209 198 197 201 203 205 208 208 209 211 212 212 211 209 209 211 213
253 262 272 261 249 247 233 238 261 222 228 224 220 220 222 218 218 219 216 208 210 203 192 192 197 202 200 198 197 199 205 207 206 204 202 202 202 204 207 210 211 213 214 215 215 213 212 214 217
215 205 220 214 218 238 213 226 246 226 228 223 219 215 213 211 209 210 214 211 207 204 201 195 197 203 201 201 202 204 207 207 210 209 207 202 203 204 207 207 211 213 215 215 214 214 217 215 218
214 207 215 222 225 245 213 229 243 219 221 224 225 213 205 205 205 206 212 216 215 208 199 196 202 208 203 206 209 208 208 210 215 215 213 209 208 207 201 204 209 211 212 213 212 216 217 216 219
213 220 232 258 273 270 248 252 258 226 199 187 209 224 227 218 210 211 212 210 213 215 205 201 205 212 213 210 212 213 210 211 213 212 214 215 212 205 201 201 206 210 210 209 208 215 215 213 218
225 217 211 218 227 242 244 240 244 225 217 218 210 213 221 223 198 191 215 213 192 199 222 209 203 211 223 221 213 215 217 214 212 209 210 211 211 206 201 202 204 206 207 205 204 209 211 212 217
216 220 221 224 222 223 251 248 224 216 203 203 218 227 235 260 279 302 299 324 229 206 212 228 231 228 230 231 223 217 219 218 214 212 212 211 209 205 202 199 198 198 200 200 202 207 204 211 218
229 228 220 225 236 235 252 256 7 18 35 149 205 249 282 292 313 347 2 2 358 336 294 250 237 228 225 225 228 229 225 216 218 216 212 206 205 200 196 193 192 195 196 197 200 206 208 213 217